Location: *
(34.6780°N, 135.8310°E)
Time: 19:30:07
(UTC+00:00)

Cosmos 2333 Rocket - Pass Details

Date: 18 October 2019
Orbit: 838 x 863 km, 70.8° (Epoch: 12 November)

Event Time Altitude Azimuth Distance (km) Brightness Sun altitude
Exits shadow 18:13:46 24° 23° (NNE) 1,672 4.0 -35.7°
Drops below altitude 10° 18:15:57 10° 22° (NNE) 2,475 5.0 -35.3°
Sets 18:18:25 0° 22° (NNE) 3,417 5.8 -34.8°
